User: anonymous   Login
Location: Caltech
(34.1382°N, 118.1253°W)
Time: 14:25:55
(UTC-07:00)
Language:

Cosmos 1125 Rocket - Orbit

View from above orbital plane
View from above orbital plane
View from above satellite
View from above satellite

Ground track
Ground track

The orbit data is extracted from the following two-line orbital elements,

1 11511U 79078B   17141.91403677 +.00000062 +00000-0 +30051-4 0  9992
2 11511 074.0374 003.5932 0016564 254.6384 105.2939 14.36767786974589
Epoch (UTC): 21 May 2017 21:56:12
Eccentricity: 0.0016564
inclination: 74.0374°
perigee height: 757 km
apogee height: 781 km
right ascension of ascending node: 3.5932°
argument of perigee: 254.6384°
revolutions per day: 14.36767786
mean anomaly at epoch: 105.2939°
orbit number at epoch: 97458

The dashed part of the orbit path shows where the satellite is in the earth's shadow,  

DLR